Weather History for Raleigh-Durham Airport, NC

Change the Weather History Date:

Tuesday, December 16, 2014

  Actual Average Record
Temperature  
Mean Temperature 45 °F 43 °F  
Max Temperature 52 °F 53 °F 77 °F (1971)
Min Temperature 37 °F 33 °F 7 °F (1958)
Degree Days  
Heating Degree Days 20 22  
Month to date heating degree days 313 319  
Since 1 July heating degree days 977 900  
Cooling Degree Days 0 0  
Month to date cooling degree days 0 0  
Year to date cooling degree days 1657 1728  
Moisture  
Dew Point 43 °F    
Average Humidity 78    
Maximum Humidity 93    
Minimum Humidity 63    
Precipitation  
Precipitation 0.32 in 0.09 in 2.12 in (1893)
Month to date precipitation 1.11 1.58  
Year to date precipitation 51.39 41.85  
Snow  
Snow 0.00 in 0.10 in 5.50 in (1942)
Month to date snowfall 0.0 0.2  
Since 1 July snowfall T 0.3  
Snow Depth 0.00 in    
Sea Level Pressure  
Sea Level Pressure 29.98 in    
Wind  
Wind Speed 3 mph (SW)    
Max Wind Speed 10 mph    
Max Gust Speed 14 mph    
Visibility 5 miles    
Events Fog , Rain    
T = Trace of Precipitation, MM = Missing Value Source: NWS Daily Summary

Daily Weather History Graph

Daily Weather History Graph

Search for Another Location

Airport:

Trip Planner

Search our weather history database for the weather conditions in past years. The results will help you decide how hot, cold, wet, or windy it might be!

Date:

Astronomy

Dec. 16, 2014 Rise Set
Actual Time 7:18 AM EST 5:02 PM EST
Civil Twilight 6:50 AM EST 5:31 PM EST
Nautical Twilight 6:18 AM EST 6:03 PM EST
Astronomical Twilight 5:46 AM EST 6:34 PM EST
Moon 1:41 AM EST (12/16) 1:24 PM EST (12/16)
Length of Visible Light 10h 41m
Length of Day
9h 44m
Waning Crescent, 30% of the Moon is Illuminated
Dec 16
Waning Crescent
Dec 21
New
Dec 28
First Quarter
Jan 4
Full
Jan 13
Last Quarter

Hourly Weather History & Observations

Time (EST) Temp. Windchill Dew Point Humidity Pressure Visibility Wind Dir Wind Speed Gust Speed Precip Events Conditions
12:51 AM 39.9 °F - 35.1 °F 83% 30.07 in 8.0 mi Calm Calm - N/A   Mostly Cloudy
1:51 AM 41.0 °F - 35.1 °F 79% 30.06 in 8.0 mi Calm Calm - N/A   Mostly Cloudy
2:51 AM 37.9 °F - 33.1 °F 83% 30.05 in 8.0 mi Calm Calm - N/A   Partly Cloudy
3:51 AM 39.0 °F - 34.0 °F 82% 30.04 in 7.0 mi Calm Calm - N/A   Partly Cloudy
4:51 AM 42.1 °F - 37.0 °F 82% 30.02 in 6.0 mi Calm Calm - N/A   Haze
5:51 AM 42.1 °F 39.2 °F 39.0 °F 89% 30.03 in 5.0 mi South 4.6 mph - N/A   Mostly Cloudy
6:51 AM 44.1 °F 41.5 °F 39.9 °F 85% 30.03 in 5.0 mi South 4.6 mph - N/A   Mostly Cloudy
7:51 AM 44.1 °F - 39.9 °F 85% 30.02 in 5.0 mi Calm Calm - N/A   Mostly Cloudy
8:51 AM 48.0 °F - 42.1 °F 80% 30.01 in 7.0 mi SSW 6.9 mph - N/A   Mostly Cloudy
9:51 AM 51.1 °F - 39.9 °F 66% 30.01 in 8.0 mi WSW 4.6 mph - N/A   Mostly Cloudy
10:51 AM 48.9 °F - 41.0 °F 74% 30.01 in 2.0 mi WSW 6.9 mph - 0.00 in Rain Rain
11:24 AM 46.4 °F 44.3 °F 42.8 °F 87% 29.98 in 3.0 mi SSW 4.6 mph - 0.14 in Rain Light Rain
11:40 AM 46.4 °F 45.2 °F 42.8 °F 87% 29.98 in 1.2 mi South 3.5 mph - 0.16 in Rain Rain
11:51 AM 46.9 °F - 43.0 °F 86% 29.97 in 1.2 mi Calm Calm - 0.18 in Rain Light Rain
12:46 PM 48.2 °F - 44.6 °F 87% 29.94 in 3.0 mi SSW 8.1 mph - 0.13 in Rain Light Rain
12:51 PM 48.9 °F - 45.0 °F 86% 29.94 in 3.0 mi SSW 10.4 mph - 0.14 in Rain Light Rain
1:51 PM 50.0 °F - 46.0 °F 86% 29.90 in 6.0 mi SSW 8.1 mph - 0.00 in   Overcast
2:44 PM 51.8 °F - 46.4 °F 82% 29.90 in 5.0 mi SSW 5.8 mph - N/A   Haze
2:51 PM 51.1 °F - 46.9 °F 86% 29.91 in 6.0 mi SSW 5.8 mph - N/A   Overcast
3:51 PM 52.0 °F - 48.0 °F 86% 29.91 in 6.0 mi Calm Calm - N/A   Overcast
4:38 PM 51.8 °F - 48.2 °F 88% 29.91 in 4.0 mi Calm Calm - N/A   Overcast
4:51 PM 51.1 °F - 48.0 °F 89% 29.91 in 4.0 mi Calm Calm - N/A   Overcast
5:51 PM 50.0 °F - 46.9 °F 89% 29.93 in 5.0 mi SSW 3.5 mph - 0.00 in   Mostly Cloudy
6:31 PM 48.2 °F - 46.4 °F 93% 29.94 in 4.0 mi Calm Calm - N/A Fog Patches of Fog
6:51 PM 50.0 °F - 46.9 °F 89% 29.96 in 4.0 mi Calm Calm - N/A Fog Patches of Fog
7:51 PM 50.0 °F - 46.9 °F 89% 29.96 in 3.0 mi West 4.6 mph - N/A   Mostly Cloudy
8:17 PM 48.2 °F - 46.4 °F 93% 29.96 in 3.0 mi WSW 4.6 mph - N/A   Scattered Clouds
8:36 PM 46.4 °F 44.3 °F 44.6 °F 93% 29.96 in 2.0 mi WSW 4.6 mph - N/A Fog Patches of Fog
8:51 PM 46.9 °F - 44.1 °F 90% 29.97 in 2.0 mi SW 5.8 mph - N/A Fog Patches of Fog
9:38 PM 46.4 °F 45.2 °F 44.6 °F 93% 29.97 in 3.0 mi WSW 3.5 mph - N/A Fog Patches of Fog
9:51 PM 46.9 °F - 45.0 °F 93% 29.97 in 3.0 mi Calm Calm - N/A Fog Patches of Fog
10:51 PM 46.0 °F 44.8 °F 43.0 °F 89% 29.98 in 4.0 mi WNW 3.5 mph - N/A   Partly Cloudy
11:51 PM 45.0 °F 42.6 °F 41.0 °F 86% 29.99 in 7.0 mi West 4.6 mph - N/A   Clear